• In Russia
  • List of Countries
  • For 7 days
  • Water Temperature
  • Satellite Maps
  • Weather Map
  • Weather Widgets
  • user-avatar
    Login

    Hourly Weather Durres

    Today, 29 April, Saturday

    Time Temperature Precipitation Wind Pressure Humidity
    00:00 +16°C° 0.2 mm 5 mps 758 mmHg 53%
    01:00 +17°C° 0.2 mm 4 mps 758 mmHg 51%
    02:00 +17°C° 0.1 mm 4 mps 758 mmHg 50%
    03:00 +17°C° 0.1 mm 4 mps 758 mmHg 49%
    04:00 +17°C° 0.1 mm 4 mps 757 mmHg 48%
    05:00 +18°C° 0 mm 4 mps 757 mmHg 47%
    06:00 +19°C° 0 mm 3 mps 757 mmHg 46%
    07:00 +20°C° 0 mm 2 mps 757 mmHg 45%
    08:00 +23°C° 0 mm 2 mps 757 mmHg 41%
    09:00 +24°C° 0 mm 2 mps 757 mmHg 38%
    10:00 +25°C° 0 mm 2 mps 757 mmHg 34%
    11:00 +26°C° 0 mm 3 mps 757 mmHg 34%
    12:00 +26°C° 0 mm 3 mps 757 mmHg 34%
    13:00 +26°C° 0 mm 4 mps 757 mmHg 33%
    14:00 +25°C° 0 mm 4 mps 756 mmHg 39%
    15:00 +23°C° 0 mm 5 mps 756 mmHg 44%
    16:00 +22°C° 0 mm 5 mps 756 mmHg 49%
    17:00 +20°C° 0 mm 5 mps 756 mmHg 55%
    18:00 +19°C° 0 mm 4 mps 756 mmHg 61%
    19:00 +17°C° 0 mm 4 mps 756 mmHg 68%
    20:00 +15°C° 0 mm 4 mps 756 mmHg 69%
    21:00 +15°C° 0 mm 4 mps 757 mmHg 71%
    22:00 +15°C° 0 mm 5 mps 757 mmHg 73%
    23:00 +14°C° 0 mm 5 mps 757 mmHg 75%

    Tomorrow, 30 April, Sunday

    Time Temperature Precipitation Wind Pressure Humidity
    00:00 +14°C° 0 mm 6 mps 757 mmHg 76%
    01:00 +14°C° 0 mm 6 mps 756 mmHg 78%
    02:00 +14°C° 0 mm 6 mps 756 mmHg 80%
    03:00 +13°C° 0 mm 6 mps 756 mmHg 83%
    04:00 +13°C° 0 mm 6 mps 756 mmHg 85%
    05:00 +15°C° 0 mm 6 mps 757 mmHg 79%
    06:00 +16°C° 0 mm 5 mps 757 mmHg 73%
    07:00 +19°C° 0 mm 5 mps 757 mmHg 66%
    08:00 +20°C° 0 mm 5 mps 757 mmHg 61%
    09:00 +22°C° 0 mm 6 mps 757 mmHg 55%
    10:00 +24°C° 0 mm 6 mps 757 mmHg 50%
    11:00 +24°C° 0.1 mm 6 mps 757 mmHg 50%
    12:00 +24°C° 0.1 mm 7 mps 757 mmHg 51%
    13:00 +24°C° 0.1 mm 7 mps 756 mmHg 52%
    14:00 +24°C° 0.1 mm 7 mps 756 mmHg 55%
    15:00 +23°C° 0.1 mm 7 mps 756 mmHg 58%
    16:00 +22°C° 0.1 mm 7 mps 756 mmHg 61%
    17:00 +20°C° 0.1 mm 6 mps 756 mmHg 69%
    18:00 +17°C° 0.1 mm 6 mps 756 mmHg 78%
    19:00 +15°C° 0.1 mm 5 mps 757 mmHg 86%
    20:00 +15°C° 0 mm 4 mps 757 mmHg 87%
    21:00 +14°C° 0 mm 4 mps 757 mmHg 88%
    22:00 +14°C° 0 mm 4 mps 758 mmHg 90%
    23:00 +14°C° 0 mm 4 mps 758 mmHg 90%

    Day after tomorrow, 1 May, Monday

    Time Temperature Precipitation Wind Pressure Humidity
    00:00 +13°C° 0 mm 4 mps 758 mmHg 90%
    01:00 +13°C° 0 mm 4 mps 758 mmHg 90%
    02:00 +13°C° 0 mm 4 mps 758 mmHg 91%
    03:00 +13°C° 0 mm 4 mps 758 mmHg 91%
    04:00 +13°C° 0 mm 3 mps 758 mmHg 91%
    05:00 +14°C° 0 mm 3 mps 758 mmHg 85%
    06:00 +17°C° 0 mm 3 mps 758 mmHg 79%
    07:00 +19°C° 0 mm 3 mps 758 mmHg 74%
    08:00 +20°C° 0 mm 3 mps 758 mmHg 69%
    09:00 +21°C° 0 mm 3 mps 758 mmHg 65%
    10:00 +23°C° 0 mm 4 mps 758 mmHg 60%
    11:00 +23°C° 0.1 mm 4 mps 758 mmHg 60%
    12:00 +23°C° 0.1 mm 4 mps 758 mmHg 60%
    13:00 +23°C° 0.1 mm 5 mps 758 mmHg 60%
    14:00 +23°C° 0 mm 4 mps 758 mmHg 61%
    15:00 +23°C° 0 mm 4 mps 758 mmHg 62%
    16:00 +22°C° 0 mm 4 mps 757 mmHg 63%
    17:00 +20°C° 0 mm 3 mps 758 mmHg 72%
    18:00 +18°C° 0 mm 2 mps 758 mmHg 81%
    19:00 +15°C° 0 mm 2 mps 758 mmHg 91%
    20:00 +15°C° 0 mm 1 mps 758 mmHg 91%
    21:00 +15°C° 0 mm 1 mps 758 mmHg 91%
    22:00 +13°C° 0 mm 0 mps 759 mmHg 91%
    23:00 +13°C° 0 mm 0 mps 759 mmHg 91%

    2 May, Tuesday

    Time Temperature Precipitation Wind Pressure Humidity
    00:00 +13°C° 0 mm 0 mps 758 mmHg 91%
    01:00 +13°C° 0 mm 1 mps 758 mmHg 92%
    02:00 +12°C° 0 mm 0 mps 758 mmHg 92%
    03:00 +12°C° 0 mm 0 mps 758 mmHg 92%
    04:00 +11°C° 0 mm 0 mps 758 mmHg 92%
    05:00 +14°C° 0 mm 0 mps 758 mmHg 85%
    06:00 +16°C° 0 mm 0 mps 759 mmHg 78%
    07:00 +19°C° 0 mm 0 mps 759 mmHg 70%
    08:00 +22°C° 0 mm 1 mps 759 mmHg 64%
    09:00 +24°C° 0 mm 1 mps 759 mmHg 57%
    10:00 +25°C° 0 mm 1 mps 759 mmHg 51%
    11:00 +25°C° 0 mm 2 mps 759 mmHg 48%
    12:00 +26°C° 0 mm 3 mps 759 mmHg 45%
    13:00 +26°C° 0 mm 4 mps 758 mmHg 42%
    14:00 +25°C° 0 mm 4 mps 758 mmHg 42%
    15:00 +25°C° 0 mm 4 mps 758 mmHg 43%
    16:00 +23°C° 0 mm 4 mps 758 mmHg 43%
    17:00 +20°C° 0 mm 3 mps 759 mmHg 53%
    18:00 +18°C° 0 mm 3 mps 759 mmHg 64%
    19:00 +14°C° 0 mm 3 mps 759 mmHg 74%
    20:00 +14°C° 0 mm 2 mps 759 mmHg 75%
    21:00 +14°C° 0 mm 2 mps 760 mmHg 76%
    22:00 +13°C° 0 mm 2 mps 760 mmHg 78%
    23:00 +13°C° 0 mm 2 mps 760 mmHg 78%

    3 May, Wednesday

    Time Temperature Precipitation Wind Pressure Humidity
    00:00 +13°C° 0 mm 2 mps 760 mmHg 79%
    01:00 +13°C° 0 mm 2 mps 760 mmHg 80%
    02:00 +12°C° 0 mm 2 mps 759 mmHg 81%
    03:00 +12°C° 0 mm 2 mps 759 mmHg 82%
    04:00 +12°C° 0 mm 2 mps 759 mmHg 83%
    05:00 +14°C° 0 mm 2 mps 760 mmHg 73%
    06:00 +17°C° 0 mm 2 mps 760 mmHg 62%
    07:00 +20°C° 0 mm 1 mps 760 mmHg 52%
    08:00 +21°C° 0 mm 2 mps 760 mmHg 48%
    09:00 +23°C° 0 mm 2 mps 760 mmHg 45%
    10:00 +25°C° 0 mm 3 mps 760 mmHg 41%
    11:00 +25°C° 0 mm 3 mps 760 mmHg 42%
    12:00 +25°C° 0 mm 4 mps 759 mmHg 43%
    13:00 +26°C° 0 mm 4 mps 759 mmHg 44%
    14:00 +25°C° 0 mm 4 mps 759 mmHg 47%
    15:00 +23°C° 0 mm 4 mps 759 mmHg 50%
    16:00 +23°C° 0 mm 4 mps 759 mmHg 52%
    17:00 +20°C° 0 mm 3 mps 759 mmHg 63%
    18:00 +17°C° 0 mm 3 mps 759 mmHg 74%
    19:00 +15°C° 0 mm 2 mps 759 mmHg 85%
    20:00 +14°C° 0 mm 2 mps 760 mmHg 86%
    21:00 +14°C° 0 mm 1 mps 760 mmHg 87%
    22:00 +13°C° 0 mm 1 mps 760 mmHg 88%
    23:00 +13°C° 0 mm 1 mps 760 mmHg 88%

    4 May, Thursday

    Time Temperature Precipitation Wind Pressure Humidity
    00:00 +12°C° 0 mm 0 mps 760 mmHg 88%
    01:00 +11°C° 0 mm 0 mps 760 mmHg 87%
    02:00 +11°C° 0 mm 0 mps 760 mmHg 87%
    03:00 +11°C° 0 mm 0 mps 760 mmHg 87%
    04:00 +11°C° 0 mm 0 mps 759 mmHg 86%
    05:00 +13°C° 0 mm 0 mps 759 mmHg 77%
    06:00 +16°C° 0 mm 0 mps 760 mmHg 68%
    07:00 +18°C° 0 mm 0 mps 760 mmHg 58%
    08:00 +21°C° 0 mm 1 mps 760 mmHg 53%
    09:00 +23°C° 0 mm 1 mps 760 mmHg 48%
    10:00 +24°C° 0 mm 2 mps 760 mmHg 43%
    11:00 +24°C° 0 mm 2 mps 759 mmHg 42%
    12:00 +25°C° 0 mm 2 mps 759 mmHg 41%
    13:00 +25°C° 0 mm 3 mps 759 mmHg 40%
    14:00 +25°C° 0 mm 3 mps 759 mmHg 43%
    15:00 +24°C° 0 mm 2 mps 759 mmHg 45%
    16:00 +24°C° 0 mm 2 mps 759 mmHg 47%
    17:00 +20°C° 0 mm 2 mps 759 mmHg 58%
    18:00 +18°C° 0 mm 1 mps 759 mmHg 70%
    19:00 +15°C° 0 mm 1 mps 759 mmHg 81%
    20:00 +14°C° 0 mm 1 mps 759 mmHg 82%
    21:00 +14°C° 0 mm 1 mps 760 mmHg 83%
    22:00 +13°C° 0 mm 1 mps 760 mmHg 84%
    23:00 +13°C° 0 mm 1 mps 760 mmHg 84%
    Show more